Macugnaga, Italy 16 day weather forecast

Slopes altitude range 1325 m - 3000m

Number of lifts: 9 Pistes: 38km

In some cases the lift and piste totals shown are for the ski domain (e.g. Three Valleys) rather than individual resort (e.g. Courchevel)

Overview

The 16 day weather forecast is fully updated 4 times every day.

    • Sat 18 AUG 2018
    • Sat 18
    • 9C 14C
    • Sun 19 AUG 2018
    • Sun 19
    • 10C 14C
    • Mon 20 AUG 2018
    • Mon 20
    • 10C 14C
    • Tue 21 AUG 2018
    • Tue 21
    • 11C 14C
    • Wed 22 AUG 2018
    • Wed 22
    • 10C 13C
    • Thu 23 AUG 2018
    • Thu 23
    • 10C 14C
    • Fri 24 AUG 2018
    • Fri 24
    • 9C 14C
    • Sat 25 AUG 2018
    • Sat 25
    • 7C 13C
    • Sun 26 AUG 2018
    • Sun 26
    • 6C 12C
    • Mon 27 AUG 2018
    • Mon 27
    • 5C 12C
    • Tue 28 AUG 2018
    • Tue 28
    • 10C 17C
    • Wed 29 AUG 2018
    • Wed 29
    • 10C 19C
    • Thu 30 AUG 2018
    • Thu 30
    • 12C 17C
    • Fri 31 AUG 2018
    • Fri 31
    • 11C 19C
    • Sat 01 SEP 2018
    • Sat 01
    • 10C 17C
    • Sun 02 SEP 2018
    • Sun 02
    • 9C 11C

Date:

Time Type 0°C level Temp Chill Snow Cloud Speed Gust Dir Press
12:00 3922m 14°C 14_6 0cm 93% 6mph 6mph 1020mB
15:00 4001m 14°C 14_7 0cm 70% 7mph 7mph 1019mB
18:00 4031m 14°C 14_3 0cm 73% 3mph 4mph 1020mB
21:00 4056m 6°C 6_2 0cm 37% 2mph 3mph 1022mB
0:00 4066m 5°C 5_2 0cm 21% 2mph 3mph 1022mB
3:00 4074m 5°C 5_3 0cm 9% 3mph 4mph 1022mB
6:00 4078m 5°C 5_3 0cm 23% 3mph 3mph 1022mB
9:00 4097m 10°C 10_5 0cm 80% 5mph 4mph 1022mB
12:00 4056m 14°C 14_6 0cm 89% 6mph 5mph 1020mB
15:00 4126m 14°C 14_4 0cm 82% 4mph 4mph 1020mB
18:00 4135m 14°C 14_0 0cm 87% 0mph 1mph 1021mB
21:00 4132m 9°C 9_5 0cm 94% 5mph 5mph 1022mB
0:00 4072m 8°C 8_4 0cm 94% 4mph 5mph 1022mB
3:00 4079m 7°C 7_4 0cm 88% 4mph 5mph 1021mB
6:00 4091m 7°C 7_4 0cm 85% 4mph 5mph 1021mB
9:00 4105m 10°C 10_3 0cm 40% 3mph 2mph 1020mB
12:00 4170m 14°C 14_3 0cm 55% 3mph 3mph 1019mB
15:00 4266m 14°C 14_2 0cm 97% 2mph 2mph 1018mB
18:00 4225m 14°C 14_3 0cm 98% 3mph 3mph 1019mB
21:00 4245m 11°C 11_5 0cm 100% 5mph 5mph 1021mB
0:00 4233m 10°C 10_4 0cm 99% 4mph 4mph 1020mB
3:00 4247m 9°C 9_3 0cm 94% 3mph 4mph 1020mB
6:00 4180m 8°C 8_3 0cm 72% 3mph 3mph 1021mB
9:00 4205m 11°C 11_5 0cm 39% 5mph 5mph 1020mB
12:00 4226m 14°C 14_6 0cm 62% 6mph 6mph 1019mB
15:00 4287m 14°C 14_4 0cm 96% 4mph 5mph 1018mB
18:00 4216m 14°C 14_1 0cm 98% 1mph 2mph 1019mB
21:00 4196m 10°C 10_3 0cm 99% 3mph 3mph 1021mB
0:00 4110m 9°C 9_3 0cm 98% 3mph 3mph 1021mB
3:00 4034m 9°C 9_3 0cm 97% 3mph 3mph 1021mB
6:00 4033m 9°C 9_2 0cm 96% 2mph 1mph 1021mB
9:00 4092m 10°C 10_5 0cm 82% 5mph 6mph 1020mB
12:00 4170m 13°C 13_6 0cm 88% 6mph 6mph 1019mB
15:00 4177m 14°C 14_4 0cm 93% 4mph 4mph 1018mB
18:00 4160m 14°C 14_1 0cm 96% 1mph 1mph 1019mB
21:00 4129m 10°C 10_4 0cm 100% 4mph 4mph 1020mB
0:00 4102m 9°C 9_4 0cm 99% 4mph 4mph 1019mB
3:00 4063m 8°C 8_4 0cm 97% 4mph 4mph 1018mB
6:00 4027m 8°C 8_4 0cm 95% 4mph 4mph 1018mB
9:00 4079m 10°C 10_3 0cm 56% 3mph 3mph 1017mB
12:00 4117m 14°C 14_4 0cm 54% 4mph 4mph 1015mB
15:00 4115m 14°C 14_0 0cm 98% 0mph 1mph 1014mB
18:00 3968m 14°C 14_5 0cm 99% 5mph 6mph 1015mB
21:00 3999m 10°C 10_6 0cm 100% 6mph 6mph 1016mB
0:00 4003m 9°C 9_6 0cm 100% 6mph 6mph 1015mB
3:00 3908m 9°C 9_6 0cm 100% 6mph 7mph 1015mB
6:00 3930m 8°C 8_7 0cm 100% 7mph 7mph 1015mB
9:00 3928m 9°C 9_2 0cm 100% 2mph 3mph 1015mB
12:00 3936m 14°C 14_3 0cm 100% 3mph 2mph 1014mB
15:00 4004m 14°C 14_3 0cm 88% 3mph 3mph 1013mB
18:00 3873m 14°C 14_4 0cm 92% 4mph 3mph 1014mB
21:00 3858m 7°C 7_7 0cm 95% 7mph 7mph 1015mB
0:00 3726m 7°C 7_7 0cm 96% 7mph 7mph 1015mB
3:00 3664m 6°C 6_7 0cm 98% 7mph 8mph 1015mB
6:00 3577m 6°C 6_6 0cm 98% 6mph 7mph 1015mB
9:00 3557m 7°C 7_0 0cm 22% 0mph 2mph 1014mB
12:00 3571m 13°C 13_1 0cm 38% 1mph 3mph 1012mB
15:00 3640m 13°C 13_1 0cm 98% 1mph 2mph 1011mB
18:00 3584m 13°C 13_3 0cm 98% 3mph 3mph 1013mB
21:00 3678m 6°C 6_8 0cm 98% 8mph 8mph 1015mB
0:00 3569m 5°C 5_8 0cm 98% 8mph 8mph 1015mB
3:00 3477m 5°C 5_7 0cm 98% 7mph 7mph 1014mB
6:00 3447m 4°C 4_7 0cm 98% 7mph 7mph 1014mB
9:00 3338m 6°C 6_2 0cm 66% 2mph 3mph 1014mB
12:00 3421m 12°C 12_2 0cm 49% 2mph 2mph 1013mB
15:00 3429m 12°C 12_2 0cm 97% 2mph 3mph 1013mB
18:00 3409m 12°C 12_4 0cm 88% 4mph 4mph 1015mB
21:00 3472m 4°C 4_7 0cm 0% 7mph 7mph 1017mB
0:00 3471m 3°C 3_7 0cm 0% 7mph 7mph 1018mB
3:00 3495m 3°C 3_7 0cm 0% 7mph 8mph 1018mB
6:00 3493m 3°C 3_6 0cm 0% 6mph 6mph 1019mB
9:00 3475m 6°C 6_2 0cm 0% 2mph 2mph 1018mB
12:00 3532m 12°C 12_3 0cm 0% 3mph 3mph 1018mB
15:00 3707m 13°C 13_2 0cm 30% 2mph 2mph 1017mB
18:00 3961m 13°C 13_1 0cm 31% 1mph 2mph 1019mB
21:00 4106m 5°C 5_3 0cm 26% 3mph 4mph 1021mB
0:00 4168m 4°C 4_4 0cm 35% 4mph 5mph 1021mB
3:00 4236m 4°C 4_4 0cm 31% 4mph 5mph 1021mB
6:00 4305m 3°C 3_4 0cm 15% 4mph 4mph 1021mB
Afternoon 0.0416667mm 0.1875 4333m 17°C 17_3 0cm 44% 3mph 5mph 1020mB
Morning 0mm 0 4460m 8°C 8_2 0cm 22% 2mph 4mph 1023mB
Afternoon 0.130208mm 1.5 4409m 19°C 19_3 0cm 43% 3mph 4mph 1021mB
Morning 0.46875mm 5.4375 4307m 10°C 10_2 0cm 86% 2mph 2mph 1023mB
Afternoon 1.14062mm 13 4050m 17°C 17_3 0cm 94% 3mph 4mph 1020mB
Morning 0.28125mm 1.1875 3978m 10°C 10_6 0cm 94% 6mph 6mph 1021mB
Afternoon 1.5625mm 18.5 4098m 19°C 19_5 0cm 84% 5mph 6mph 1019mB
Morning 0.723958mm 8.6875 3986m 9°C 9_4 0cm 63% 4mph 5mph 1018mB
Afternoon 1.21354mm 14.375 3950m 17°C 17_3 0cm 59% 3mph 4mph 1012mB
Morning 2.63542mm 20.25 3772m 9°C 9_2 0cm 100% 2mph 4mph 1009mB
Afternoon 3.44271mm 5.75 3778m 11°C 11_5 0cm 100% 5mph 7mph 1003mB
Morning 0.666667mm 5.1875 3165m 5°C 5_8 0cm 82% 8mph 13mph 1006mB

16 day outlook at a glance

Forecast issued: 18/08/2018 18:53:41

Chat

Your comments and questions. In a resort? Let us know what it's like!


Characters left 250

For terms and conditions see Readers Comments on the Cookie and privacy policy page.